User: anonymous   Login
Location: Bergnerzell
(49.1816°N, 10.2565°E)
Time: 19:12:44
(UTC+00:00)
Language:

Cosmos 1408 - Orbit

View from above orbital plane
View from above orbital plane
View from above satellite
View from above satellite

Ground track
Ground track

The orbit data is extracted from the following two-line orbital elements,

1 13552U 82092A   24198.47994658  .00070917  00000-0  59617-3 0  9998
2 13552  82.5523 211.1057 0012216 203.9439 156.1256 15.69527844293294
Epoch (UTC): 16 July 2024 11:31:07
Eccentricity: 0.0012216
inclination: 82.5523°
perigee height: 352 km
apogee height: 368 km
right ascension of ascending node: 211.1057°
argument of perigee: 203.9439°
revolutions per day: 15.69527844
mean anomaly at epoch: 156.1256°
orbit number at epoch: 29329

The dashed part of the orbit path shows where the satellite is in the earth's shadow,  

DLR